| time (UTC) | temp F | wind direction | speed knots | gust knots | rain 1hr in | rain 24hr in | rain mn in | humidity % | barometer mb |
| 20260507062508 | 75 | 183 | 1.7 | 4.3 | 0.00 | 0.00 | 0.00 | 78 | 1012.4 |
| 20260507062008 | 75 | 172 | 1.7 | 4.3 | 0.00 | 0.00 | 0.00 | 78 | 1012.6 |
| 20260507061508 | 75 | 167 | 0.9 | 2.6 | 0.00 | 0.00 | 0.00 | 78 | 1012.8 |
| 20260507061008 | 75 | 180 | 0.9 | 2.6 | 0.00 | 0.00 | 0.00 | 78 | 1012.8 |
| 20260507060508 | 76 | 181 | 0.0 | 0.0 | 0.00 | 0.00 | 0.00 | 78 | 1012.9 |
| 20260507060008 | 76 | 190 | 0.9 | 4.3 | 0.00 | 0.00 | 0.00 | 77 | 1013.0 |
| 20260507055508 | 76 | 169 | 0.0 | 5.2 | 0.00 | 0.00 | 0.00 | 77 | 1012.9 |
| 20260507055008 | 76 | 168 | 1.7 | 4.3 | 0.00 | 0.00 | 0.00 | 77 | 1012.8 |
| 20260507054507 | 76 | 163 | 0.0 | 2.6 | 0.00 | 0.00 | 0.00 | 77 | 1012.9 |
| 20260507054007 | 76 | 178 | 0.0 | 2.6 | 0.00 | 0.00 | 0.00 | 76 | 1013.1 |
| 20260507053508 | 76 | 172 | 0.9 | 2.6 | 0.00 | 0.00 | 0.00 | 76 | 1013.2 |
| 20260507053008 | 76 | 165 | 0.0 | 1.7 | 0.00 | 0.00 | 0.00 | 76 | 1013.2 |
| 20260507052508 | 76 | 171 | 0.0 | 0.0 | 0.00 | 0.00 | 0.00 | 76 | 1013.2 |
| 20260507052008 | 76 | 168 | 0.0 | 0.0 | 0.00 | 0.00 | 0.00 | 76 | 1013.2 |
| 20260507051508 | 76 | 178 | 0.0 | 0.0 | 0.00 | 0.00 | 0.00 | 75 | 1013.2 |
| 20260507051007 | 76 | 169 | 0.0 | 5.2 | 0.00 | 0.00 | 0.00 | 75 | 1013.2 |
| 20260507050008 | 76 | 178 | 0.0 | 5.2 | 0.00 | 0.00 | 0.00 | 75 | 1013.2 |
| 20260507045508 | 77 | 176 | 1.7 | 6.1 | 0.00 | 0.00 | 0.00 | 75 | 1013.2 |
| 20260507045007 | 77 | 184 | 0.9 | 2.6 | 0.00 | 0.00 | 0.00 | 74 | 1013.2 |
| 20260507044507 | 77 | 187 | 1.7 | 5.2 | 0.00 | 0.00 | 0.00 | 74 | 1013.0 |
| 20260507043508 | 77 | 169 | 4.3 | 7.8 | 0.00 | 0.00 | 0.00 | 74 | 1013.1 |
| 20260507043008 | 77 | 162 | 0.9 | 6.1 | 0.00 | 0.00 | 0.00 | 74 | 1013.2 |
| 20260507042508 | 77 | 170 | 2.6 | 6.1 | 0.00 | 0.00 | 0.00 | 74 | 1013.3 |
| 20260507042007 | 77 | 166 | 0.9 | 4.3 | 0.00 | 0.00 | 0.00 | 74 | 1013.4 |
| 20260507041507 | 77 | 153 | 0.0 | 0.0 | 0.00 | 0.00 | 0.00 | 73 | 1013.4 |
| 20260507041008 | 77 | 177 | 0.0 | 0.0 | 0.00 | 0.00 | 0.00 | 73 | 1013.4 |
| 20260507040508 | 77 | 169 | 0.0 | 0.0 | 0.00 | 0.00 | 0.00 | 73 | 1013.5 |
| 20260507040008 | 77 | 155 | 0.0 | 0.0 | 0.00 | 0.00 | 0.00 | 73 | 1013.6 |
| 20260507035508 | 77 | 156 | 0.0 | 0.0 | 0.00 | 0.00 | 0.00 | 73 | 1013.6 |
| 20260507035008 | 77 | 179 | 0.0 | 0.0 | 0.00 | 0.00 | 0.00 | 73 | 1013.6 |
| 20260507034507 | 77 | 163 | 0.0 | 0.0 | 0.00 | 0.00 | 0.00 | 73 | 1013.6 |
| 20260507034007 | 77 | 163 | 0.0 | 0.0 | 0.00 | 0.00 | 0.00 | 73 | 1013.6 |
| 20260507033508 | 77 | 175 | 0.0 | 0.0 | 0.00 | 0.00 | 0.00 | 73 | 1013.5 |
| 20260507033008 | 77 | 165 | 0.0 | 0.0 | 0.00 | 0.00 | 0.00 | 73 | 1013.4 |
| 20260507032508 | 77 | 169 | 0.0 | 0.0 | 0.00 | 0.00 | 0.00 | 73 | 1013.5 |
| 20260507032007 | 77 | 153 | 0.0 | 0.0 | 0.00 | 0.00 | 0.00 | 73 | 1013.6 |
| 20260507031507 | 77 | 158 | 0.0 | 0.0 | 0.00 | 0.00 | 0.00 | 73 | 1013.7 |
| 20260507031008 | 77 | 164 | 0.0 | 0.0 | 0.00 | 0.00 | 0.00 | 73 | 1013.6 |
| 20260507030507 | 77 | 167 | 0.0 | 0.0 | 0.00 | 0.00 | 0.00 | 73 | 1013.6 |
| 20260507030009 | 78 | 161 | 1.7 | 7.0 | 0.00 | 0.00 | 0.00 | 73 | 1013.6 |
| 20260507025508 | 78 | 167 | 0.9 | 5.2 | 0.00 | 0.00 | 0.00 | 73 | 1013.6 |
| 20260507024008 | 78 | 176 | 0.0 | 6.1 | 0.00 | 0.00 | 0.00 | 73 | 1013.6 |
| 20260507023508 | 78 | 165 | 2.6 | 7.8 | 0.00 | 0.00 | 0.00 | 73 | 1013.6 |
| 20260507023008 | 78 | 156 | 0.0 | 0.9 | 0.00 | 0.00 | 0.00 | 73 | 1013.6 |
| 20260507022507 | 78 | 152 | 0.0 | 0.0 | 0.00 | 0.00 | 0.00 | 73 | 1013.4 |
| 20260507022007 | 78 | 164 | 0.0 | 5.2 | 0.00 | 0.00 | 0.00 | 73 | 1013.4 |
| 20260507021008 | 78 | 164 | 4.3 | 6.1 | 0.00 | 0.00 | 0.00 | 73 | 1013.4 |
| 20260507020508 | 78 | 164 | 4.3 | 7.8 | 0.00 | 0.00 | 0.00 | 73 | 1013.4 |
| 20260507020007 | 78 | 174 | 2.6 | 7.0 | 0.00 | 0.00 | 0.00 | 73 | 1013.4 |
| 20260507015008 | 79 | 165 | 2.6 | 5.2 | 0.00 | 0.00 | 0.00 | 72 | 1013.4 |
| 20260507014508 | 79 | 159 | 2.6 | 5.2 | 0.00 | 0.00 | 0.00 | 72 | 1013.5 |
| 20260507014008 | 79 | 134 | 0.9 | 5.2 | 0.00 | 0.00 | 0.00 | 71 | 1013.5 |
| 20260507013508 | 79 | 159 | 4.3 | 7.0 | 0.00 | 0.00 | 0.00 | 71 | 1013.5 |
| 20260507013007 | 79 | 174 | 2.6 | 6.1 | 0.00 | 0.00 | 0.00 | 71 | 1013.4 |
| 20260507012508 | 79 | 175 | 0.9 | 7.0 | 0.00 | 0.00 | 0.00 | 71 | 1013.2 |
| 20260507011508 | 79 | 175 | 2.6 | 7.8 | 0.00 | 0.00 | 0.00 | 71 | 1013.3 |
| 20260507010008 | 80 | 175 | 4.3 | 10.4 | 0.00 | 0.00 | 0.00 | 71 | 1013.2 |
| 20260507005508 | 80 | 181 | 4.3 | 7.8 | 0.00 | 0.00 | 0.00 | 70 | 1013.2 |
| 20260507005007 | 80 | 171 | 4.3 | 11.3 | 0.00 | 0.00 | 0.00 | 70 | 1013.1 |
| 20260507004508 | 80 | 165 | 1.7 | 8.7 | 0.00 | 0.00 | 0.00 | 71 | 1013.0 |
| 20260507004008 | 80 | 157 | 0.0 | 0.0 | 0.00 | 0.00 | 0.00 | 71 | 1013.0 |
| 20260507003507 | 80 | 167 | 0.0 | 0.0 | 0.00 | 0.00 | 0.00 | 71 | 1012.9 |
| 20260507003008 | 80 | 166 | 1.7 | 5.2 | 0.00 | 0.00 | 0.00 | 71 | 1012.8 |
| 20260507002508 | 80 | 157 | 0.0 | 8.7 | 0.00 | 0.00 | 0.00 | 71 | 1012.7 |
| 20260507002008 | 80 | 154 | 1.7 | 7.0 | 0.00 | 0.00 | 0.00 | 71 | 1012.7 |
| 20260507001008 | 81 | 161 | 3.5 | 7.8 | 0.00 | 0.00 | 0.00 | 71 | 1012.5 |
| 20260507000508 | 81 | 172 | 4.3 | 10.4 | 0.00 | 0.00 | 0.00 | 71 | 1012.3 |
| 20260507000007 | 81 | 127 | 0.0 | 7.8 | 0.00 | 0.00 | 0.00 | 71 | 1012.2 |
| 20260506235008 | 81 | 150 | 4.3 | 10.4 | 0.00 | 0.00 | 0.00 | 70 | 1012.5 |
| 20260506234008 | 82 | 180 | 1.7 | 7.8 | 0.00 | 0.00 | 0.00 | 71 | 1012.3 |
| 20260506233508 | 82 | 163 | 3.5 | 8.7 | 0.00 | 0.00 | 0.00 | 71 | 1012.4 |
| 20260506233007 | 82 | 163 | 0.0 | 10.4 | 0.00 | 0.00 | 0.00 | 71 | 1012.2 |
| 20260506232508 | 82 | 157 | 4.3 | 12.2 | 0.00 | 0.00 | 0.00 | 70 | 1012.2 |
| 20260506232007 | 82 | 140 | 5.2 | 13.9 | 0.00 | 0.00 | 0.00 | 70 | 1012.2 |
| 20260506231508 | 83 | 148 | 3.5 | 13.0 | 0.00 | 0.00 | 0.00 | 71 | 1012.1 |
| 20260506231007 | 83 | 135 | 5.2 | 13.9 | 0.00 | 0.00 | 0.00 | 70 | 1012.1 |
| 20260506230507 | 83 | 155 | 6.1 | 17.4 | 0.00 | 0.00 | 0.00 | 71 | 1012.2 |
| 20260506230008 | 84 | 163 | 5.2 | 12.2 | 0.00 | 0.00 | 0.00 | 71 | 1012.2 |
| 20260506225507 | 84 | 154 | 3.5 | 15.6 | 0.00 | 0.00 | 0.00 | 70 | 1012.2 |
| 20260506225008 | 84 | 157 | 5.2 | 14.8 | 0.00 | 0.00 | 0.00 | 69 | 1012.2 |
| 20260506224008 | 84 | 165 | 5.2 | 12.2 | 0.00 | 0.00 | 0.00 | 69 | 1012.2 |
| 20260506223007 | 85 | 144 | 7.8 | 13.9 | 0.00 | 0.00 | 0.00 | 68 | 1012.3 |
| 20260506222508 | 85 | 149 | 5.2 | 11.3 | 0.00 | 0.00 | 0.00 | 68 | 1012.3 |
| 20260506222008 | 85 | 147 | 7.0 | 14.8 | 0.00 | 0.00 | 0.00 | 67 | 1012.2 |
| 20260506221507 | 86 | 163 | 4.3 | 13.0 | 0.00 | 0.00 | 0.00 | 67 | 1012.3 |
| 20260506221008 | 86 | 155 | 1.7 | 15.6 | 0.00 | 0.00 | 0.00 | 68 | 1012.2 |
| 20260506220508 | 86 | 160 | 7.8 | 14.8 | 0.00 | 0.00 | 0.00 | 67 | 1012.2 |
| 20260506220007 | 86 | 155 | 6.1 | 17.4 | 0.00 | 0.00 | 0.00 | 68 | 1012.0 |
| 20260506215508 | 86 | 144 | 4.3 | 11.3 | 0.00 | 0.00 | 0.00 | 68 | 1012.0 |
| 20260506214507 | 86 | 146 | 7.8 | 15.6 | 0.00 | 0.00 | 0.00 | 68 | 1011.9 |
| 20260506214008 | 86 | 155 | 6.1 | 13.0 | 0.00 | 0.00 | 0.00 | 68 | 1012.0 |
| 20260506213008 | 87 | 159 | 1.7 | 13.0 | 0.00 | 0.00 | 0.00 | 68 | 1012.2 |
| 20260506212507 | 87 | 149 | 8.7 | 15.6 | 0.00 | 0.00 | 0.00 | 67 | 1012.1 |
| 20260506212008 | 87 | 113 | 5.2 | 12.2 | 0.00 | 0.00 | 0.00 | 69 | 1012.1 |
| 20260506211508 | 87 | 149 | 2.6 | 8.7 | 0.00 | 0.00 | 0.00 | 67 | 1012.2 |
| 20260506211008 | 88 | 179 | 1.7 | 8.7 | 0.00 | 0.00 | 0.00 | 67 | 1012.3 |
| 20260506210508 | 88 | 96 | 0.0 | 5.2 | 0.00 | 0.00 | 0.00 | 67 | 1012.3 |
| 20260506205508 | 88 | 93 | 2.6 | 11.3 | 0.00 | 0.00 | 0.00 | 68 | 1012.3 |
| 20260506205007 | 88 | 111 | 2.6 | 8.7 | 0.00 | 0.00 | 0.00 | 66 | 1012.2 |
| 20260506204508 | 89 | 106 | 1.7 | 11.3 | 0.00 | 0.00 | 0.00 | 65 | 1012.4 |
| 20260506204007 | 89 | 110 | 1.7 | 8.7 | 0.00 | 0.00 | 0.00 | 66 | 1012.4 |
| 20260506203508 | 88 | 160 | 1.7 | 12.2 | 0.00 | 0.00 | 0.00 | 66 | 1012.4 |
| 20260506203007 | 89 | 150 | 6.1 | 10.4 | 0.00 | 0.00 | 0.00 | 66 | 1012.4 |
| 20260506202508 | 89 | 50 | 0.9 | 10.4 | 0.00 | 0.00 | 0.00 | 65 | 1012.5 |
| 20260506202007 | 89 | 98 | 0.9 | 7.8 | 0.00 | 0.00 | 0.00 | 65 | 1012.6 |
| 20260506201508 | 89 | 146 | 4.3 | 8.7 | 0.00 | 0.00 | 0.00 | 65 | 1012.5 |
| 20260506201007 | 89 | 149 | 4.3 | 10.4 | 0.00 | 0.00 | 0.00 | 63 | 1012.6 |
| 20260506200508 | 90 | 105 | 2.6 | 6.1 | 0.00 | 0.00 | 0.00 | 65 | 1012.8 |
| 20260506200008 | 90 | 154 | 3.5 | 7.8 | 0.00 | 0.00 | 0.00 | 63 | 1012.8 |
| 20260506195508 | 91 | 110 | 3.5 | 8.7 | 0.00 | 0.00 | 0.00 | 62 | 1012.9 |
| 20260506195007 | 91 | 162 | 1.7 | 11.3 | 0.00 | 0.00 | 0.00 | 61 | 1012.8 |
| 20260506194508 | 91 | 113 | 0.9 | 6.1 | 0.00 | 0.00 | 0.00 | 60 | 1012.8 |
| 20260506194007 | 91 | 89 | 0.0 | 5.2 | 0.00 | 0.00 | 0.00 | 60 | 1012.9 |
| 20260506193508 | 91 | 172 | 0.9 | 8.7 | 0.00 | 0.00 | 0.00 | 59 | 1013.1 |
| 20260506193008 | 91 | 222 | 5.2 | 10.4 | 0.00 | 0.00 | 0.00 | 56 | 1013.1 |
| 20260506192507 | 92 | 202 | 0.0 | 2.6 | 0.00 | 0.00 | 0.00 | 55 | 1013.1 |
| 20260506192007 | 92 | 139 | 2.6 | 8.7 | 0.00 | 0.00 | 0.00 | 53 | 1013.3 |
| 20260506191508 | 91 | 163 | 3.5 | 10.4 | 0.00 | 0.00 | 0.00 | 55 | 1013.4 |
| 20260506191008 | 91 | 181 | 5.2 | 10.4 | 0.00 | 0.00 | 0.00 | 55 | 1013.4 |
| 20260506190008 | 91 | 151 | 1.7 | 12.2 | 0.00 | 0.00 | 0.00 | 57 | 1013.5 |
| 20260506185507 | 90 | 158 | 0.0 | 10.4 | 0.00 | 0.00 | 0.00 | 56 | 1013.6 |
| 20260506185008 | 90 | 206 | 3.5 | 10.4 | 0.00 | 0.00 | 0.00 | 57 | 1013.7 |
| 20260506184508 | 91 | 169 | 0.9 | 2.6 | 0.00 | 0.00 | 0.00 | 56 | 1013.8 |
| 20260506184008 | 91 | 117 | 5.2 | 8.7 | 0.00 | 0.00 | 0.00 | 56 | 1013.9 |
| 20260506183508 | 90 | 151 | 3.5 | 10.4 | 0.00 | 0.00 | 0.00 | 57 | 1013.9 |
| 20260506183008 | 90 | 141 | 6.1 | 10.4 | 0.00 | 0.00 | 0.00 | 59 | 1014.0 |
| 20260506182507 | 90 | 141 | 5.2 | 12.2 | 0.00 | 0.00 | 0.00 | 57 | 1014.0 |
| 20260506182008 | 90 | 170 | 3.5 | 10.4 | 0.00 | 0.00 | 0.00 | 58 | 1014.0 |
| 20260506181507 | 89 | 163 | 4.3 | 11.3 | 0.00 | 0.00 | 0.00 | 59 | 1014.2 |
| 20260506181007 | 89 | 135 | 1.7 | 10.4 | 0.00 | 0.00 | 0.00 | 61 | 1014.2 |
| 20260506180508 | 89 | 210 | 1.7 | 7.8 | 0.00 | 0.00 | 0.00 | 61 | 1014.2 |
| 20260506180007 | 89 | 160 | 2.6 | 10.4 | 0.00 | 0.00 | 0.00 | 60 | 1014.3 |
| 20260506175508 | 89 | 164 | 2.6 | 11.3 | 0.00 | 0.00 | 0.00 | 63 | 1014.3 |
| 20260506175007 | 88 | 161 | 1.7 | 10.4 | 0.00 | 0.00 | 0.00 | 62 | 1014.4 |
| 20260506174508 | 88 | 218 | 0.9 | 7.0 | 0.00 | 0.00 | 0.00 | 62 | 1014.5 |
| 20260506174007 | 88 | 155 | 0.9 | 7.0 | 0.00 | 0.00 | 0.00 | 63 | 1014.6 |
| 20260506173507 | 87 | 151 | 4.3 | 7.8 | 0.00 | 0.00 | 0.00 | 63 | 1014.6 |
| 20260506173008 | 88 | 235 | 5.2 | 13.0 | 0.00 | 0.00 | 0.00 | 62 | 1014.8 |
| 20260506172508 | 88 | 156 | 4.3 | 10.4 | 0.00 | 0.00 | 0.00 | 62 | 1014.8 |
| 20260506172008 | 88 | 160 | 0.9 | 10.4 | 0.00 | 0.00 | 0.00 | 62 | 1014.8 |
| 20260506171507 | 88 | 143 | 2.6 | 8.7 | 0.00 | 0.00 | 0.00 | 62 | 1014.8 |
| 20260506171008 | 88 | 162 | 0.9 | 7.0 | 0.00 | 0.00 | 0.00 | 62 | 1014.9 |
| 20260506170508 | 87 | 171 | 2.6 | 7.0 | 0.00 | 0.00 | 0.00 | 63 | 1015.0 |
| 20260506170007 | 87 | 146 | 1.7 | 7.8 | 0.00 | 0.00 | 0.00 | 63 | 1015.1 |
| 20260506165508 | 87 | 172 | 6.1 | 10.4 | 0.00 | 0.00 | 0.00 | 64 | 1015.0 |
| 20260506165008 | 86 | 148 | 3.5 | 10.4 | 0.00 | 0.00 | 0.00 | 64 | 1015.2 |
| 20260506164508 | 86 | 180 | 4.3 | 10.4 | 0.00 | 0.00 | 0.00 | 64 | 1015.3 |
| 20260506164008 | 86 | 202 | 2.6 | 10.4 | 0.00 | 0.00 | 0.00 | 65 | 1015.5 |
| 20260506163508 | 85 | 170 | 6.1 | 11.3 | 0.00 | 0.00 | 0.00 | 66 | 1015.4 |
| 20260506163008 | 85 | 188 | 5.2 | 10.4 | 0.00 | 0.00 | 0.00 | 65 | 1015.5 |
| 20260506162508 | 85 | 231 | 6.1 | 11.3 | 0.00 | 0.00 | 0.00 | 65 | 1015.5 |
| 20260506162007 | 85 | 178 | 5.2 | 12.2 | 0.00 | 0.00 | 0.00 | 65 | 1015.4 |
| 20260506161008 | 84 | 152 | 2.6 | 8.7 | 0.00 | 0.00 | 0.00 | 69 | 1015.6 |
| 20260506160508 | 84 | 239 | 7.8 | 11.3 | 0.00 | 0.00 | 0.00 | 66 | 1015.6 |
| 20260506155508 | 84 | 202 | 2.6 | 8.7 | 0.00 | 0.00 | 0.00 | 67 | 1015.6 |
| 20260506155008 | 83 | 175 | 5.2 | 11.3 | 0.00 | 0.00 | 0.00 | 69 | 1015.6 |
| 20260506154507 | 83 | 192 | 4.3 | 13.9 | 0.00 | 0.00 | 0.00 | 68 | 1015.7 |
| 20260506154008 | 84 | 194 | 6.1 | 12.2 | 0.00 | 0.00 | 0.00 | 67 | 1015.7 |
| 20260506153507 | 84 | 168 | 5.2 | 11.3 | 0.00 | 0.00 | 0.00 | 67 | 1015.6 |
| 20260506153007 | 83 | 179 | 5.2 | 10.4 | 0.00 | 0.00 | 0.00 | 68 | 1015.5 |
| 20260506152508 | 83 | 167 | 5.2 | 12.2 | 0.00 | 0.00 | 0.00 | 68 | 1015.5 |
| 20260506151507 | 83 | 175 | 5.2 | 10.4 | 0.00 | 0.00 | 0.00 | 70 | 1015.5 |
| 20260506150508 | 82 | 150 | 6.1 | 10.4 | 0.00 | 0.00 | 0.00 | 69 | 1015.4 |
| 20260506150008 | 82 | 165 | 4.3 | 8.7 | 0.00 | 0.00 | 0.00 | 70 | 1015.4 |
| 20260506145007 | 81 | 175 | 6.1 | 17.4 | 0.00 | 0.00 | 0.00 | 70 | 1015.5 |
| 20260506144008 | 81 | 204 | 4.3 | 10.4 | 0.00 | 0.00 | 0.00 | 72 | 1015.3 |
| 20260506143507 | 80 | 187 | 8.7 | 17.4 | 0.00 | 0.00 | 0.00 | 71 | 1015.4 |
| 20260506143008 | 80 | 168 | 9.6 | 15.6 | 0.00 | 0.00 | 0.00 | 71 | 1015.3 |
| 20260506142508 | 80 | 171 | 7.8 | 14.8 | 0.00 | 0.00 | 0.00 | 71 | 1015.4 |
| 20260506142008 | 80 | 168 | 6.1 | 8.7 | 0.00 | 0.00 | 0.00 | 72 | 1015.3 |
| 20260506141507 | 80 | 165 | 7.8 | 14.8 | 0.00 | 0.00 | 0.00 | 72 | 1015.3 |
| 20260506140507 | 79 | 190 | 7.0 | 14.8 | 0.00 | 0.00 | 0.00 | 73 | 1015.4 |
| 20260506140008 | 79 | 167 | 7.8 | 14.8 | 0.00 | 0.00 | 0.00 | 73 | 1015.3 |
| 20260506135507 | 79 | 177 | 7.0 | 12.2 | 0.00 | 0.00 | 0.00 | 73 | 1015.4 |
| 20260506135007 | 78 | 168 | 7.0 | 13.0 | 0.00 | 0.00 | 0.00 | 74 | 1015.4 |
| 20260506134507 | 78 | 180 | 6.1 | 14.8 | 0.00 | 0.00 | 0.00 | 74 | 1015.5 |
| 20260506134008 | 78 | 183 | 4.3 | 10.4 | 0.00 | 0.00 | 0.00 | 74 | 1015.4 |
| 20260506133507 | 77 | 203 | 6.1 | 10.4 | 0.00 | 0.00 | 0.00 | 75 | 1015.4 |
| 20260506133008 | 77 | 209 | 5.2 | 11.3 | 0.00 | 0.00 | 0.00 | 75 | 1015.3 |
| 20260506132508 | 77 | 216 | 7.0 | 12.2 | 0.00 | 0.00 | 0.00 | 74 | 1015.3 |
| 20260506131008 | 76 | 188 | 4.3 | 8.7 | 0.00 | 0.00 | 0.00 | 76 | 1015.4 |
| 20260506130508 | 76 | 162 | 5.2 | 10.4 | 0.00 | 0.00 | 0.00 | 76 | 1015.3 |
| 20260506130007 | 75 | 191 | 1.7 | 7.0 | 0.00 | 0.00 | 0.00 | 77 | 1015.3 |
| 20260506124507 | 73 | 165 | 6.1 | 12.2 | 0.00 | 0.00 | 0.00 | 80 | 1015.1 |
| 20260506124007 | 73 | 176 | 4.3 | 7.8 | 0.00 | 0.00 | 0.00 | 82 | 1015.1 |
| 20260506123007 | 71 | 198 | 2.6 | 7.8 | 0.00 | 0.00 | 0.00 | 86 | 1015.0 |
| 20260506122508 | 70 | 165 | 2.6 | 4.3 | 0.00 | 0.00 | 0.00 | 87 | 1015.0 |
| 20260506122007 | 69 | 171 | 2.6 | 7.0 | 0.00 | 0.00 | 0.00 | 88 | 1014.9 |
| 20260506121507 | 69 | 203 | 1.7 | 4.3 | 0.00 | 0.00 | 0.00 | 89 | 1014.8 |
| 20260506121007 | 68 | 68 | 0.0 | 0.0 | 0.00 | 0.00 | 0.00 | 89 | 1014.8 |
| 20260506120508 | 67 | 68 | 0.0 | 0.0 | 0.00 | 0.00 | 0.00 | 89 | 1014.8 |
| 20260506120008 | 66 | 68 | 0.0 | 0.0 | 0.00 | 0.00 | 0.00 | 89 | 1014.8 |
| 20260506115508 | 66 | 68 | 0.0 | 0.0 | 0.00 | 0.00 | 0.00 | 89 | 1014.7 |
| 20260506115008 | 65 | 68 | 0.0 | 0.0 | 0.00 | 0.00 | 0.00 | 89 | 1014.7 |
| 20260506114008 | 65 | 68 | 0.0 | 0.0 | 0.00 | 0.00 | 0.00 | 89 | 1014.6 |
| 20260506113507 | 64 | 68 | 0.0 | 0.0 | 0.00 | 0.00 | 0.00 | 89 | 1014.7 |
| 20260506113008 | 64 | 68 | 0.0 | 0.0 | 0.00 | 0.00 | 0.00 | 89 | 1014.7 |
| 20260506112508 | 64 | 68 | 0.0 | 0.0 | 0.00 | 0.00 | 0.00 | 89 | 1014.7 |
| 20260506112007 | 63 | 68 | 0.0 | 0.0 | 0.00 | 0.00 | 0.00 | 89 | 1014.5 |
| 20260506111508 | 63 | 68 | 0.0 | 0.0 | 0.00 | 0.00 | 0.00 | 89 | 1014.3 |
| 20260506111007 | 63 | 68 | 0.0 | 0.0 | 0.00 | 0.00 | 0.00 | 89 | 1014.3 |
| 20260506110008 | 62 | 68 | 0.0 | 0.0 | 0.00 | 0.00 | 0.00 | 88 | 1014.1 |
| 20260506105507 | 62 | 68 | 0.0 | 0.0 | 0.00 | 0.00 | 0.00 | 88 | 1014.1 |
| 20260506104007 | 63 | 68 | 0.0 | 0.0 | 0.00 | 0.00 | 0.00 | 88 | 1014.2 |
| 20260506103007 | 63 | 68 | 0.0 | 0.0 | 0.00 | 0.00 | 0.00 | 88 | 1014.1 |
| 20260506102508 | 63 | 68 | 0.0 | 0.0 | 0.00 | 0.00 | 0.00 | 88 | 1014.1 |
| 20260506102007 | 63 | 68 | 0.0 | 0.0 | 0.00 | 0.00 | 0.00 | 88 | 1014.0 |
| 20260506101508 | 63 | 68 | 0.0 | 0.0 | 0.00 | 0.00 | 0.00 | 88 | 1014.1 |
| 20260506101008 | 63 | 68 | 0.0 | 0.0 | 0.00 | 0.00 | 0.00 | 88 | 1014.1 |
| 20260506100508 | 63 | 68 | 0.0 | 0.0 | 0.00 | 0.00 | 0.00 | 88 | 1014.2 |
| 20260506100008 | 63 | 68 | 0.0 | 0.0 | 0.00 | 0.00 | 0.00 | 87 | 1014.2 |
| 20260506095508 | 63 | 68 | 0.0 | 0.0 | 0.00 | 0.00 | 0.00 | 88 | 1014.1 |
| 20260506094507 | 63 | 68 | 0.0 | 0.0 | 0.00 | 0.00 | 0.00 | 88 | 1014.1 |
| 20260506094007 | 63 | 68 | 0.0 | 0.0 | 0.00 | 0.00 | 0.00 | 87 | 1014.1 |
| 20260506093507 | 63 | 68 | 0.0 | 0.0 | 0.00 | 0.00 | 0.00 | 87 | 1014.0 |
| 20260506093007 | 63 | 68 | 0.0 | 0.0 | 0.00 | 0.00 | 0.00 | 87 | 1014.0 |
| 20260506092508 | 63 | 68 | 0.0 | 0.0 | 0.00 | 0.00 | 0.00 | 87 | 1014.0 |
| 20260506092008 | 63 | 68 | 0.0 | 0.0 | 0.00 | 0.00 | 0.00 | 87 | 1013.9 |
| 20260506091507 | 63 | 68 | 0.0 | 0.0 | 0.00 | 0.00 | 0.00 | 87 | 1013.8 |
| 20260506090508 | 63 | 68 | 0.0 | 0.0 | 0.00 | 0.00 | 0.00 | 87 | 1013.8 |
| 20260506090008 | 63 | 68 | 0.0 | 0.0 | 0.00 | 0.00 | 0.00 | 87 | 1013.9 |
| 20260506085508 | 63 | 68 | 0.0 | 0.0 | 0.00 | 0.00 | 0.00 | 87 | 1013.9 |
| 20260506084508 | 63 | 68 | 0.0 | 0.0 | 0.00 | 0.00 | 0.00 | 87 | 1014.0 |
| 20260506083508 | 63 | 68 | 0.0 | 0.0 | 0.00 | 0.00 | 0.00 | 87 | 1013.8 |
| 20260506083008 | 63 | 68 | 0.0 | 0.0 | 0.00 | 0.00 | 0.00 | 87 | 1013.7 |
| 20260506082507 | 63 | 68 | 0.0 | 0.0 | 0.00 | 0.00 | 0.00 | 87 | 1013.8 |
| 20260506082009 | 63 | 68 | 0.0 | 0.0 | 0.00 | 0.00 | 0.00 | 87 | 1013.9 |
| 20260506081508 | 63 | 68 | 0.0 | 0.0 | 0.00 | 0.00 | 0.00 | 87 | 1013.8 |
| 20260506081008 | 63 | 68 | 0.0 | 0.0 | 0.00 | 0.00 | 0.00 | 87 | 1013.8 |
| 20260506080507 | 63 | 68 | 0.0 | 0.0 | 0.00 | 0.00 | 0.00 | 87 | 1013.9 |
| 20260506073508 | 63 | 68 | 0.0 | 0.0 | 0.00 | 0.00 | 0.00 | 87 | 1013.5 |
| 20260506073008 | 63 | 68 | 0.0 | 0.0 | 0.00 | 0.00 | 0.00 | 87 | 1013.3 |
| 20260506072508 | 63 | 68 | 0.0 | 0.0 | 0.00 | 0.00 | 0.00 | 87 | 1013.5 |
| 20260506072008 | 63 | 68 | 0.0 | 0.0 | 0.00 | 0.00 | 0.00 | 88 | 1013.6 |
| 20260506071508 | 63 | 68 | 0.0 | 0.0 | 0.00 | 0.00 | 0.00 | 87 | 1013.7 |
| 20260506071008 | 63 | 68 | 0.0 | 0.0 | 0.00 | 0.00 | 0.00 | 87 | 1013.8 |
| 20260506070508 | 63 | 68 | 0.0 | 0.0 | 0.00 | 0.00 | 0.00 | 87 | 1013.9 |